Location: Bishausen
(51.6334°N, 9.9631°E)
Time: 09:29:36
(UTC+00:00)

Cosmos 1140 Rocket - Pass Details

Date: 23 May 2024
Orbit: 743 x 764 km, 74.1° (Epoch: 23 June)

Event Time Altitude Azimuth Distance (km) Brightness Sun altitude
Exits shadow 00:22:30 17° 240° (WSW) 1,888 5.1 -16.3°
Maximum altitude 00:26:14 41° 304° (NW) 1,103 4.4 -16.1°
Drops below altitude 10° 00:31:10 10° 15° (NNE) 2,305 7.4 -15.9°
Sets 00:33:41 0° 23° (NNE) 3,232 8.6 -15.8°
